Location: Warszawa
(52.2322°N, 21.0083°E)
Time: 00:41:21
(UTC+02:00)

ISS - Pass Details

Date: 24 March 2019
Orbit: 408 x 410 km, 51.6° (Epoch: 23 April)

Event Time Altitude Azimuth Distance (km) Brightness Sun altitude
Rises 21:04:33 0° 263° (W) 2,335 0.6 -26.8°
Reaches altitude 10° 21:06:38 10° 263° (W) 1,474 -0.6 -27.1°
Enters shadow 21:06:50 11° 263° (W) 1,393 -0.7 -27.1°
